Pratt, KS

3:14 AM CDT on July 24, 2017 (GMT -0500)
Pratt Industrial

Weather History for KPTT - August, 2014

Change the Weather History Date:

Tuesday, August 12, 2014

  Actual Average (KP28) Record (KP28)
Temperature  
Mean Temperature 70 °F -  
Max Temperature 82 °F 89 °F 118 °F (1936)
Min Temperature 59 °F 65 °F 49 °F (1979)
Cooling Degree Days 6    
Growing Degree Days 20 (Base 50)    
Moisture  
Dew Point 53 °F    
Average Humidity 55    
Maximum Humidity 88    
Minimum Humidity 35    
Precipitation  
Precipitation 0.00 in - - ()
Sea Level Pressure  
Sea Level Pressure 30.17 in    
Wind  
Wind Speed 2 mph (East)    
Max Wind Speed 7 mph    
Max Gust Speed -    
Visibility 10 miles    
Events      
Averages and records for this station are not official NWS values.
T = Trace of Precipitation, MM = Missing Value Source: NWS Daily Summary

Daily Weather History Graph

Daily Weather History Graph

Search for Another Location

Airport or City:

Trip Planner

Search our weather history database for the weather conditions in past years. The results will help you decide how hot, cold, wet, or windy it might be!

Date:

Astronomy

Aug. 12, 2014 Rise Set
Actual Time 6:48 AM CDT 8:31 PM CDT
Civil Twilight 6:19 AM CDT 8:59 PM CDT
Nautical Twilight 5:45 AM CDT 9:33 PM CDT
Astronomical Twilight 5:09 AM CDT 10:09 PM CDT
Moon 9:43 PM CDT (8/12) 9:03 AM CDT (8/12)
Length of Visible Light 14h 39m
Length of Day
13h 43m
Waning Gibbous, 94% of the Moon is Illuminated
Aug 12
Waning Gibbous
Aug 17
Last Quarter
Aug 25
New
Sep 2
First Quarter
Sep 8
Full

Hourly Weather History & Observations

Time (CDT) Temp. Heat Index Dew Point Humidity Pressure Visibility Wind Dir Wind Speed Gust Speed Precip Events Conditions
3:15 AM 62.6 °F - 51.8 °F 68% 30.21 in 10.0 mi Calm Calm - N/A   Clear
3:35 AM 60.8 °F - 53.6 °F 77% 30.21 in 10.0 mi Calm Calm - N/A   Clear
3:55 AM 60.8 °F - 55.4 °F 82% 30.21 in 10.0 mi Calm Calm - N/A   Clear
4:15 AM 62.6 °F - 53.6 °F 72% 30.21 in 10.0 mi Calm Calm - N/A   Clear
4:35 AM 60.8 °F - 53.6 °F 77% 30.21 in 10.0 mi Calm Calm - N/A   Clear
4:55 AM 62.6 °F - 53.6 °F 72% 30.21 in 10.0 mi Calm Calm - N/A   Scattered Clouds
5:15 AM 59.0 °F - 55.4 °F 88% 30.21 in 10.0 mi Calm Calm - N/A   Clear
5:35 AM 59.0 °F - 53.6 °F 82% 30.22 in 10.0 mi NNW 3.5 mph - N/A   Clear
5:55 AM 59.0 °F - 53.6 °F 82% 30.22 in 10.0 mi North 3.5 mph - N/A   Clear
6:15 AM 59.0 °F - 53.6 °F 82% 30.22 in 10.0 mi Calm Calm - N/A   Scattered Clouds
6:35 AM 59.0 °F - 53.6 °F 82% 30.23 in 10.0 mi NW 3.5 mph - N/A   Clear
6:55 AM 59.0 °F - 53.6 °F 82% 30.23 in 10.0 mi Calm Calm - N/A   Scattered Clouds
7:15 AM 59.0 °F - 53.6 °F 82% 30.23 in 10.0 mi North 3.5 mph - N/A   Scattered Clouds
7:35 AM 60.8 °F - 53.6 °F 77% 30.23 in 10.0 mi Calm Calm - N/A   Clear
7:55 AM 60.8 °F - 55.4 °F 82% 30.23 in 10.0 mi Calm Calm - N/A   Clear
8:15 AM 62.6 °F - 55.4 °F 77% 30.24 in 10.0 mi Calm Calm - N/A   Clear
8:35 AM 64.4 °F - 53.6 °F 68% 30.24 in 10.0 mi Calm Calm - N/A   Clear
8:55 AM 68.0 °F - 53.6 °F 60% 30.24 in 10.0 mi NNE 3.5 mph - N/A   Clear
9:15 AM 68.0 °F - 55.4 °F 64% 30.23 in 10.0 mi ENE 3.5 mph - N/A   Clear
9:35 AM 69.8 °F - 53.6 °F 56% 30.23 in 10.0 mi NE 3.5 mph - N/A   Clear
9:55 AM 71.6 °F - 51.8 °F 50% 30.22 in 10.0 mi ENE 4.6 mph - N/A   Clear
10:15 AM 71.6 °F - 51.8 °F 50% 30.22 in 10.0 mi NE 3.5 mph - N/A   Clear
10:35 AM 73.4 °F - 51.8 °F 47% 30.22 in 10.0 mi ENE 4.6 mph - N/A   Clear
12:35 PM 78.8 °F - 50.0 °F 36% 30.21 in 10.0 mi East 6.9 mph - N/A   Clear
12:55 PM 78.8 °F - 51.8 °F 39% 30.21 in 10.0 mi Calm Calm - N/A   Clear
1:15 PM 80.6 °F - 51.8 °F 37% 30.20 in 10.0 mi Calm Calm - N/A   Clear
1:35 PM 78.8 °F - 50.0 °F 36% 30.20 in 10.0 mi Calm Calm - N/A   Clear
2:15 PM 80.6 °F - 51.8 °F 37% 30.18 in 10.0 mi Calm Calm - N/A   Clear
3:15 PM 82.4 °F - 51.8 °F 35% 30.16 in 10.0 mi Calm Calm - N/A   Clear
3:35 PM 82.4 °F - 51.8 °F 35% 30.16 in 10.0 mi WSW 3.5 mph - N/A   Clear
3:55 PM 82.4 °F - 51.8 °F 35% 30.15 in 10.0 mi SSE 4.6 mph - N/A   Clear
4:15 PM 82.4 °F - 51.8 °F 35% 30.14 in 10.0 mi SE 4.6 mph - N/A   Clear
4:35 PM 82.4 °F - 51.8 °F 35% 30.13 in 10.0 mi East 3.5 mph - N/A   Clear
4:55 PM 82.4 °F - 51.8 °F 35% 30.13 in 10.0 mi Calm Calm - N/A   Clear
5:15 PM 82.4 °F - 51.8 °F 35% 30.12 in 10.0 mi Calm Calm - N/A   Clear
5:35 PM 82.4 °F - 51.8 °F 35% 30.12 in 10.0 mi Calm Calm - N/A   Clear
5:55 PM 82.4 °F - 51.8 °F 35% 30.11 in 10.0 mi East 4.6 mph - N/A   Clear
6:15 PM 82.4 °F - 51.8 °F 35% 30.11 in 10.0 mi ESE 4.6 mph - N/A   Clear
6:55 PM 82.4 °F - 51.8 °F 35% 30.10 in 10.0 mi East 4.6 mph - N/A   Clear
7:15 PM 80.6 °F 80.3 °F 53.6 °F 39% 30.10 in 10.0 mi ESE 4.6 mph - N/A   Clear
7:35 PM 80.6 °F - 51.8 °F 37% 30.10 in 10.0 mi East 4.6 mph - N/A   Clear
7:55 PM 80.6 °F 80.3 °F 53.6 °F 39% 30.10 in 10.0 mi ESE 3.5 mph - N/A   Clear
8:15 PM 78.8 °F - 53.6 °F 42% 30.10 in 10.0 mi East 4.6 mph - N/A   Clear
8:35 PM 78.8 °F - 55.4 °F 44% 30.11 in 10.0 mi ESE 4.6 mph - N/A   Clear
8:55 PM 77.0 °F - 55.4 °F 47% 30.11 in 10.0 mi ESE 5.8 mph - N/A   Clear
9:15 PM 75.2 °F - 55.4 °F 50% 30.12 in 10.0 mi ESE 5.8 mph - N/A   Clear
9:35 PM 73.4 °F - 55.4 °F 53% 30.12 in 10.0 mi ESE 5.8 mph - N/A   Clear
9:55 PM 73.4 °F - 55.4 °F 53% 30.13 in 10.0 mi SE 4.6 mph - N/A   Clear
10:15 PM 71.6 °F - 55.4 °F 57% 30.13 in 10.0 mi SE 4.6 mph - N/A   Clear
10:35 PM 71.6 °F - 55.4 °F 57% 30.14 in 10.0 mi SE 5.8 mph - N/A   Clear
10:55 PM 69.8 °F - 55.4 °F 60% 30.13 in 10.0 mi SE 5.8 mph - N/A   Clear
11:15 PM 69.8 °F - 55.4 °F 60% 30.14 in 10.0 mi SE 4.6 mph - N/A   Clear
11:35 PM 69.8 °F - 55.4 °F 60% 30.14 in 10.0 mi SSE 3.5 mph - N/A   Clear
11:55 PM 69.8 °F - 55.4 °F 60% 30.14 in 10.0 mi SE 4.6 mph - N/A   Clear